Torna al catalogo

DIGUI TONGXIN SHIYAN WEI.

AttivoMilitarePO
NORAD 52717·PAYLOAD·🇨🇳 China
Questo nome del satellite non è ancora stato confermato da fonti ufficiali.

Lanciato May 20, 2022 da Jiuquan Satellite Launch Center

Loading…

Prossimi Passaggi (prossime 24 ore)

TLE

AggiornatoSource: Space-Track

Epoca: Sep 14, 2026, 14:32 UTC

1 52717U 22056B   26257.60604409 -.00000470  00000-0 -10408-2 0  9996
2 52717  86.0027  64.2178 0045117 154.8661 205.4685 13.29593864210197

Traccia DIGUI TONGXIN SHIYAN WEI. in tempo reale con AllMySat

Download on the App Store